When you browse on this site, cookies collect data to enhance your experience and personalize the content and advertising you see.
Visit our Privacy Policy to learn more. By continuing to use the site, you agree to this use of cookies and data.
  • In Schweiz
  • Länderverzeichnis
  • Für 7 Tage
  • Wassertemperatur
  • Satellitenkarten
  • Wetterkarte
  • Widgets
  • user-avatar
    Anmelden

    Stündliche Wetter Xinshi

    Heute, 26 Mai, Sonntag

    Zeit Temperatur Niederschläge Wind Luftdruck Luftfeuchtigkeit
    00:00 +25°C° 1.5 mm 2 m/S 746 mmHg 96%
    01:00 +25°C° 1.5 mm 2 m/S 746 mmHg 96%
    02:00 +25°C° 0 mm 1 m/S 745 mmHg 97%
    03:00 +25°C° 0.4 mm 1 m/S 745 mmHg 97%
    04:00 +25°C° 0.4 mm 1 m/S 745 mmHg 97%
    05:00 +25°C° 0.4 mm 1 m/S 745 mmHg 97%
    06:00 +25°C° 0.1 mm 1 m/S 746 mmHg 95%
    07:00 +26°C° 0.1 mm 1 m/S 746 mmHg 94%
    08:00 +26°C° 0 mm 2 m/S 747 mmHg 90%
    09:00 +27°C° 0.7 mm 2 m/S 747 mmHg 86%
    10:00 +28°C° 0.7 mm 2 m/S 747 mmHg 81%
    11:00 +29°C° 0.7 mm 2 m/S 747 mmHg 77%
    12:00 +30°C° 0.1 mm 2 m/S 746 mmHg 72%
    13:00 +31°C° 0.1 mm 2 m/S 746 mmHg 67%
    14:00 +32°C° 0.1 mm 2 m/S 745 mmHg 63%
    15:00 +33°C° 0 mm 1 m/S 745 mmHg 60%
    16:00 +33°C° 0 mm 1 m/S 745 mmHg 58%
    17:00 +34°C° 0 mm 1 m/S 745 mmHg 56%
    18:00 +32°C° 0 mm 1 m/S 745 mmHg 62%
    19:00 +30°C° 0 mm 1 m/S 745 mmHg 68%
    20:00 +29°C° 0 mm 2 m/S 745 mmHg 74%
    21:00 +28°C° 0 mm 2 m/S 746 mmHg 77%
    22:00 +28°C° 0 mm 1 m/S 747 mmHg 79%
    23:00 +27°C° 0 mm 1 m/S 747 mmHg 82%

    Morgen, 27 Mai, Montag

    Zeit Temperatur Niederschläge Wind Luftdruck Luftfeuchtigkeit
    00:00 +27°C° 0.1 mm 2 m/S 748 mmHg 82%
    01:00 +27°C° 0.1 mm 2 m/S 748 mmHg 81%
    02:00 +26°C° 0.1 mm 3 m/S 748 mmHg 81%
    03:00 +25°C° 0 mm 4 m/S 749 mmHg 65%
    04:00 +25°C° 0 mm 4 m/S 749 mmHg 50%
    05:00 +23°C° 0 mm 5 m/S 750 mmHg 34%
    06:00 +23°C° 0 mm 6 m/S 750 mmHg 36%
    07:00 +24°C° 0 mm 7 m/S 751 mmHg 38%
    08:00 +26°C° 0 mm 7 m/S 752 mmHg 41%
    09:00 +27°C° 0 mm 8 m/S 752 mmHg 41%
    10:00 +28°C° 0 mm 8 m/S 753 mmHg 41%
    11:00 +31°C° 0 mm 8 m/S 753 mmHg 42%
    12:00 +31°C° 0 mm 8 m/S 753 mmHg 40%
    13:00 +32°C° 0 mm 8 m/S 753 mmHg 38%
    14:00 +33°C° 0 mm 8 m/S 753 mmHg 36%
    15:00 +32°C° 0 mm 7 m/S 753 mmHg 37%
    16:00 +32°C° 0 mm 6 m/S 753 mmHg 38%
    17:00 +32°C° 0 mm 5 m/S 753 mmHg 40%
    18:00 +29°C° 0 mm 5 m/S 753 mmHg 42%
    19:00 +27°C° 0 mm 5 m/S 754 mmHg 44%
    20:00 +25°C° 0 mm 4 m/S 754 mmHg 46%
    21:00 +23°C° 0 mm 4 m/S 755 mmHg 45%
    22:00 +23°C° 0 mm 4 m/S 755 mmHg 44%
    23:00 +22°C° 0 mm 4 m/S 756 mmHg 44%

    übermorgen, 28 Mai, Dienstag

    Zeit Temperatur Niederschläge Wind Luftdruck Luftfeuchtigkeit
    00:00 +22°C° 0 mm 5 m/S 756 mmHg 44%
    01:00 +21°C° 0 mm 5 m/S 756 mmHg 44%
    02:00 +21°C° 0 mm 5 m/S 756 mmHg 44%
    03:00 +20°C° 0 mm 5 m/S 756 mmHg 48%
    04:00 +20°C° 0 mm 5 m/S 756 mmHg 52%
    05:00 +19°C° 0 mm 4 m/S 756 mmHg 56%
    06:00 +20°C° 0 mm 5 m/S 757 mmHg 53%
    07:00 +21°C° 0 mm 5 m/S 757 mmHg 49%
    08:00 +21°C° 0 mm 6 m/S 757 mmHg 46%
    09:00 +22°C° 0 mm 5 m/S 757 mmHg 44%
    10:00 +23°C° 0 mm 5 m/S 758 mmHg 42%
    11:00 +25°C° 0 mm 5 m/S 758 mmHg 39%
    12:00 +26°C° 0 mm 5 m/S 757 mmHg 38%
    13:00 +27°C° 0 mm 5 m/S 757 mmHg 36%
    14:00 +27°C° 0 mm 5 m/S 756 mmHg 35%
    15:00 +27°C° 0 mm 5 m/S 756 mmHg 35%
    16:00 +27°C° 0 mm 5 m/S 756 mmHg 34%
    17:00 +28°C° 0 mm 5 m/S 755 mmHg 34%
    18:00 +26°C° 0 mm 4 m/S 755 mmHg 39%
    19:00 +24°C° 0 mm 3 m/S 756 mmHg 44%
    20:00 +21°C° 0 mm 2 m/S 756 mmHg 48%
    21:00 +21°C° 0 mm 2 m/S 756 mmHg 47%
    22:00 +20°C° 0 mm 2 m/S 756 mmHg 47%
    23:00 +20°C° 0 mm 2 m/S 756 mmHg 46%

    29 Mai, Mittwoch

    Zeit Temperatur Niederschläge Wind Luftdruck Luftfeuchtigkeit
    00:00 +20°C° 0 mm 2 m/S 756 mmHg 46%
    01:00 +19°C° 0 mm 2 m/S 755 mmHg 47%
    02:00 +19°C° 0 mm 2 m/S 755 mmHg 47%
    03:00 +19°C° 0 mm 2 m/S 754 mmHg 47%
    04:00 +20°C° 0 mm 1 m/S 754 mmHg 47%
    05:00 +20°C° 0 mm 1 m/S 754 mmHg 48%
    06:00 +21°C° 0 mm 1 m/S 754 mmHg 47%
    07:00 +22°C° 0 mm 1 m/S 754 mmHg 46%
    08:00 +24°C° 0 mm 1 m/S 754 mmHg 45%
    09:00 +24°C° 0 mm 1 m/S 754 mmHg 47%
    10:00 +25°C° 0 mm 1 m/S 754 mmHg 48%
    11:00 +25°C° 0 mm 1 m/S 754 mmHg 49%
    12:00 +26°C° 0 mm 1 m/S 754 mmHg 47%
    13:00 +26°C° 0 mm 1 m/S 753 mmHg 45%
    14:00 +27°C° 0 mm 1 m/S 752 mmHg 44%
    15:00 +26°C° 0 mm 1 m/S 752 mmHg 46%
    16:00 +24°C° 0 mm 0 m/S 751 mmHg 49%
    17:00 +24°C° 0 mm 0 m/S 751 mmHg 52%
    18:00 +23°C° 0 mm 0 m/S 751 mmHg 53%
    19:00 +23°C° 0 mm 0 m/S 751 mmHg 53%
    20:00 +22°C° 0 mm 0 m/S 751 mmHg 53%
    21:00 +22°C° 0 mm 0 m/S 751 mmHg 53%
    22:00 +22°C° 0 mm 0 m/S 751 mmHg 54%
    23:00 +21°C° 0 mm 0 m/S 752 mmHg 54%

    30 Mai, Donnerstag

    Zeit Temperatur Niederschläge Wind Luftdruck Luftfeuchtigkeit
    00:00 +21°C° 0 mm 0 m/S 751 mmHg 55%
    01:00 +21°C° 0 mm 0 m/S 751 mmHg 56%
    02:00 +20°C° 0 mm 0 m/S 751 mmHg 56%
    03:00 +20°C° 0 mm 0 m/S 750 mmHg 57%
    04:00 +20°C° 0 mm 0 m/S 750 mmHg 58%
    05:00 +20°C° 0 mm 0 m/S 750 mmHg 58%
    06:00 +23°C° 0 mm 1 m/S 750 mmHg 56%
    07:00 +24°C° 0 mm 1 m/S 751 mmHg 54%
    08:00 +26°C° 0 mm 2 m/S 751 mmHg 52%
    09:00 +27°C° 0 mm 2 m/S 751 mmHg 50%
    10:00 +28°C° 0 mm 3 m/S 751 mmHg 49%
    11:00 +30°C° 0 mm 3 m/S 751 mmHg 47%
    12:00 +30°C° 0 mm 3 m/S 750 mmHg 47%
    13:00 +31°C° 0 mm 3 m/S 750 mmHg 48%
    14:00 +31°C° 0 mm 3 m/S 750 mmHg 48%
    15:00 +29°C° 0.3 mm 3 m/S 749 mmHg 56%
    16:00 +28°C° 0.3 mm 2 m/S 749 mmHg 65%
    17:00 +26°C° 0.3 mm 2 m/S 749 mmHg 73%
    18:00 +25°C° 0 mm 2 m/S 749 mmHg 73%
    19:00 +25°C° 0 mm 1 m/S 750 mmHg 73%
    20:00 +24°C° 0 mm 1 m/S 750 mmHg 73%
    21:00 +24°C° 0 mm 1 m/S 750 mmHg 72%
    22:00 +24°C° 0 mm 1 m/S 751 mmHg 71%
    23:00 +23°C° 0 mm 0 m/S 751 mmHg 69%

    31 Mai, Freitag

    Zeit Temperatur Niederschläge Wind Luftdruck Luftfeuchtigkeit
    00:00 +22°C° 0 mm 0 m/S 751 mmHg 70%
    01:00 +22°C° 0 mm 0 m/S 750 mmHg 71%
    02:00 +22°C° 0 mm 0 m/S 750 mmHg 72%
    03:00 +22°C° 0 mm 0 m/S 750 mmHg 73%
    04:00 +22°C° 0 mm 0 m/S 750 mmHg 73%
    05:00 +24°C° 0 mm 1 m/S 750 mmHg 74%
    06:00 +25°C° 0 mm 1 m/S 751 mmHg 72%
    07:00 +26°C° 0 mm 1 m/S 751 mmHg 70%
    08:00 +27°C° 0 mm 1 m/S 751 mmHg 68%
    09:00 +29°C° 0 mm 2 m/S 751 mmHg 62%
    10:00 +30°C° 0 mm 2 m/S 751 mmHg 57%
    11:00 +31°C° 0 mm 2 m/S 751 mmHg 51%
    12:00 +33°C° 0 mm 3 m/S 750 mmHg 47%
    13:00 +34°C° 0 mm 3 m/S 750 mmHg 43%
    14:00 +35°C° 0 mm 4 m/S 749 mmHg 39%
    15:00 +35°C° 0 mm 3 m/S 749 mmHg 40%
    16:00 +35°C° 0 mm 3 m/S 749 mmHg 41%
    17:00 +35°C° 0 mm 3 m/S 748 mmHg 42%
    18:00 +33°C° 0 mm 3 m/S 749 mmHg 49%
    19:00 +30°C° 0 mm 2 m/S 749 mmHg 55%
    20:00 +29°C° 0 mm 2 m/S 749 mmHg 61%
    21:00 +28°C° 0 mm 2 m/S 749 mmHg 64%
    22:00 +27°C° 0 mm 2 m/S 750 mmHg 66%
    23:00 +26°C° 0 mm 1 m/S 750 mmHg 68%
    Mehr zeigen